Historique des stations

Station météo de Le Grand-Pressigny

Altitude de la station : 93 m







Données météorologiques pour le 28/01/2022
Date
Heure
Températures Humidité Point de rosée Vitesse
du vent
Direction Rafales Windchill Pression Pluviométrie
Cumul
Date
Heure
Températures Humidité Point de rosée Vitesse
du vent
Direction Rafales Windchill Pression Pluviométrie
Cumul
28/01/2022 18:405.2 °C94 %4.3 °C-3 km/h01040 hPa0.2 mm
28/01/2022 18:305.3 °C94 %4.4 °C2 km/hSE3 km/h01039 hPa0.2 mm
28/01/2022 18:105.3 °C93 %4.3 °C-2 km/h01040 hPa0.2 mm
28/01/2022 18:005.4 °C93 %4.3 °C2 km/hSE5 km/h01040 hPa0.2 mm
28/01/2022 17:405.4 °C93 %4.4 °C-3 km/h01040 hPa0.2 mm
28/01/2022 17:305.5 °C93 %4.5 °C-2 km/h01040 hPa0.2 mm
28/01/2022 17:105.6 °C93 %4.5 °C2 km/hESE5 km/h01040 hPa0.2 mm
28/01/2022 17:005.6 °C93 %4.5 °C2 km/hSSE6 km/h01040 hPa0.2 mm
28/01/2022 16:405.7 °C93 %4.7 °C3 km/hSE6 km/h01040 hPa0.2 mm
28/01/2022 16:305.8 °C93 %4.7 °C-5 km/h01040 hPa0.2 mm
28/01/2022 16:105.8 °C93 %4.8 °C---01040 hPa0.2 mm
28/01/2022 16:005.7 °C93 %4.7 °C-5 km/h01040 hPa0.2 mm
28/01/2022 15:405.8 °C93 %4.8 °C2 km/hNE3 km/h01040 hPa0.2 mm
28/01/2022 15:305.8 °C93 %4.7 °C3 km/hNE5 km/h01040 hPa0.2 mm
28/01/2022 15:105.8 °C94 %4.9 °C3 km/hESE6 km/h01040 hPa0.2 mm
28/01/2022 15:005.8 °C94 %4.9 °C-5 km/h01041 hPa0.2 mm
28/01/2022 14:405.8 °C95 %5 °C3 km/hESE6 km/h01041 hPa0.2 mm
28/01/2022 14:305.8 °C95 %5.1 °C-6 km/h01041 hPa0.2 mm
28/01/2022 14:105.8 °C96 %5.2 °C2 km/hESE3 km/h01041 hPa0.2 mm
28/01/2022 14:005.7 °C97 %5.2 °C-5 km/h01041 hPa0.2 mm
28/01/2022 13:405.6 °C97 %5.2 °C2 km/hESE5 km/h01040 hPa0.2 mm
28/01/2022 13:305.4 °C97 %5 °C2 km/hESE5 km/h01040 hPa0.2 mm
28/01/2022 13:105.1 °C97 %4.7 °C3 km/hENE3 km/h01041 hPa0.2 mm
28/01/2022 13:005.1 °C97 %4.6 °C---01041 hPa0.2 mm
28/01/2022 12:404.6 °C97 %4.1 °C---01041 hPa0.2 mm
28/01/2022 12:304.3 °C97 %3.8 °C---01041 hPa0.2 mm
28/01/2022 12:104.1 °C97 %3.6 °C---01041 hPa0.2 mm
28/01/2022 12:003.9 °C97 %3.5 °C---01041 hPa0.2 mm
28/01/2022 11:403.6 °C97 %3.2 °C---01041 hPa0.2 mm
28/01/2022 11:303.5 °C97 %3.1 °C---01041 hPa0.2 mm
28/01/2022 11:103.2 °C97 %2.8 °C---01040 hPa0.2 mm
28/01/2022 11:003.1 °C97 %2.6 °C---01040 hPa0.2 mm
28/01/2022 10:402.8 °C97 %2.4 °C---01040 hPa0.2 mm
28/01/2022 10:302.8 °C97 %2.3 °C---01040 hPa0.2 mm
28/01/2022 10:102.7 °C97 %2.2 °C---01040 hPa0.2 mm
28/01/2022 10:002.6 °C97 %2.2 °C---01040 hPa0.2 mm
28/01/2022 09:402.5 °C97 %2.1 °C---01039 hPa0.2 mm
28/01/2022 09:302.5 °C97 %2.1 °C---01040 hPa0.2 mm
28/01/2022 09:102.4 °C97 %2 °C---01039 hPa0.2 mm
28/01/2022 09:002.4 °C97 %2 °C---01039 hPa0.2 mm
28/01/2022 08:402.4 °C97 %2 °C---01039 hPa0.2 mm
28/01/2022 08:302.4 °C97 %2 °C---01039 hPa0.2 mm
28/01/2022 08:102.3 °C97 %1.9 °C---01039 hPa0.2 mm
28/01/2022 08:002.3 °C97 %1.9 °C---01039 hPa0.2 mm
28/01/2022 07:402.3 °C97 %1.9 °C---01039 hPa0.2 mm
28/01/2022 07:302.3 °C97 %1.9 °C---01039 hPa0.2 mm
28/01/2022 07:102.3 °C97 %1.9 °C---01039 hPa0.2 mm
28/01/2022 07:002.3 °C97 %1.9 °C---01038 hPa0.2 mm
28/01/2022 06:402.3 °C97 %1.9 °C---01038 hPa0.2 mm
28/01/2022 06:302.3 °C97 %1.9 °C---01038 hPa0.2 mm
28/01/2022 06:102.2 °C97 %1.8 °C---01038 hPa0.2 mm
28/01/2022 06:002.2 °C96 %1.7 °C---01038 hPa0.2 mm
28/01/2022 05:402.2 °C96 %1.7 °C---01038 hPa0.2 mm
28/01/2022 05:302.2 °C96 %1.6 °C---01038 hPa0.2 mm
28/01/2022 05:102.2 °C96 %1.6 °C---01038 hPa0.2 mm
28/01/2022 05:002.1 °C96 %1.5 °C---01038 hPa0.2 mm
28/01/2022 04:402.1 °C96 %1.5 °C---01038 hPa0.2 mm
28/01/2022 04:302.1 °C96 %1.5 °C---01038 hPa0.2 mm
28/01/2022 04:102.1 °C96 %1.5 °C---01038 hPa0.2 mm
28/01/2022 04:002.1 °C96 %1.5 °C---01038 hPa0.2 mm
28/01/2022 03:402.1 °C96 %1.5 °C---01038 hPa0.2 mm
28/01/2022 03:302.1 °C96 %1.5 °C---01038 hPa0.0 mm
28/01/2022 03:102.1 °C96 %1.5 °C---01038 hPa0.0 mm
28/01/2022 03:002 °C96 %1.4 °C---01038 hPa0.0 mm
28/01/2022 02:402 °C96 %1.4 °C---01038 hPa0.0 mm
28/01/2022 02:302 °C96 %1.4 °C---01038 hPa0.0 mm
28/01/2022 02:202 °C96 %1.4 °C---01038 hPa0.0 mm
28/01/2022 02:002 °C95 %1.3 °C---01038 hPa0.0 mm
28/01/2022 01:502 °C95 %1.3 °C---01038 hPa0.0 mm
28/01/2022 01:302.1 °C95 %1.3 °C---01038 hPa0.0 mm
28/01/2022 01:102.1 °C95 %1.3 °C---01038 hPa0.0 mm
28/01/2022 01:002.1 °C95 %1.4 °C---01038 hPa0.0 mm
28/01/2022 00:402.1 °C95 %1.3 °C---01038 hPa0.2 mm
28/01/2022 00:302.1 °C94 %1.2 °C---01038 hPa0.0 mm
28/01/2022 00:102.1 °C94 %1.2 °C---01038 hPa0.0 mm
28/01/2022 00:002.1 °C94 %1.2 °C---01038 hPa0.0 mm


Minima :

Température : 2 °C
Humidité : 93 %
Point de rosée : 1.2 °C
Vent moyen : 2 km/h
Windchill : 0
Pression atm. : 1038 hPa
Maxima :

Température : 5.8 °C
Humidité : 97 %
Point de rosée : 5.2 °C
Vent moyen : 3 km/h
Windchill : 0
Pression atm. : 1041 hPa
Rafales max : 6 km/h
Cumul de pluie sur 24H : 0.2 mm

Le Grand-Pressigny est une commune du département Indre-et-Loire (37).
La station météorologique du réseau de l'association la plus proche de Le Grand-Pressigny est celle de Les Ormes



Icône Facebook Association Météo Centre Icône Twitter Association Météo Centre Icône Chaîne Youtube Association Météo Centre Icône contact Association Météo Centre Icône Insta Association Météo Centre